Temp
12 13 14 14 16 16 20 19 20 22 18 20 22 23 22 21 20 23 24 24 23 23 22 21 19 19 18 18 18 18 17 16 15 15 14 13 13 13 13 13 14 14 13 13
12 14 18 18 16 16 16 20 18 16 17 19 20 21 20 20 21 23 24 24 23 23 21 19 19 18 18 18 18 18 17 16 15 15 14 14 14 11 11 13 13 13 12 13
14 16 16 15 14 15 17 19 20 19 16 17 19 22 21 21 20 20 21 23 24 23 21 20 19 18 18 18 18 18 17 16 15 15 14 14 12 12 12 11 11 12 12 12
13 14 14 14 14 15 16 19 20 17 19 18 17 22 24 23 21 20 22 21 22 22 21 22 20 18 18 18 18 17 17 16 15 14 13 14 13 11 11 11 11 12 11 11
11 12 14 14 14 14 15 16 17 16 15 15 17 19 25 22 22 23 22 23 22 23 22 21 20 19 18 16 16 16 16 15 14 13 13 13 13 13 12 11 10 11 10 10
10 10 12 14 13 15 14 16 14 12 13 14 17 19 24 22 22 24 24 24 23 22 21 21 19 18 16 14 13 14 14 14 13 13 13 12 14 13 11 11 8 10 9 9
9 9 10 12 14 13 16 17 13 14 14 17 19 17 22 23 23 24 25 24 23 22 20 20 18 15 14 12 12 12 13 13 12 12 12 12 13 13 13 11 9 9 8 8
12 12 10 13 13 12 16 18 16 17 16 18 13 17 21 21 22 19 18 20 22 19 17 17 17 15 13 11 11 11 12 12 12 12 11 13 13 13 12 9 11 9 8 9
12 11 9 10 12 15 12 15 15 15 9 17 18 18 20 17 18 16 17 16 18 17 16 15 13 13 12 11 11 11 12 11 11 11 12 12 12 12 11 11 11 10 9 9
13 11 8 9 11 11 13 15 14 14 15 18 17 19 22 19 19 18 16 17 17 15 13 13 12 12 11 11 10 10 11 10 10 10 11 11 11 11 11 11 10 9 9 8
13 13 9 9 10 11 12 12 12 15 14 17 18 21 21 22 22 21 19 16 17 15 14 13 12 11 10 9 9 9 9 9 10 10 11 11 10 10 10 10 9 9 9 8
11 10 11 10 9 10 13 13 14 17 13 13 13 20 15 16 16 15 16 15 16 15 14 13 11 10 9 9 8 8 8 9 10 10 10 10 10 9 9 9 8 8 8 8
11 11 11 11 10 8 10 10 15 14 14 14 16 19 13 15 15 14 14 14 14 13 12 12 11 10 10 9 8 8 8 8 10 9 9 9 9 8 8 8 8 7 8 8
9 10 12 14 13 12 11 11 13 15 14 16 17 20 19 17 16 16 14 13 13 12 12 12 11 11 10 9 8 8 8 7 8 8 8 8 8 8 8 8 7 8 8 8
9 10 10 10 11 12 13 12 12 13 15 16 18 18 19 18 17 16 15 12 12 12 12 12 11 11 10 9 8 8 7 7 8 7 8 8 8 8 7 7 7 7 7 7
9 9 9 10 11 12 12 12 12 13 14 15 14 16 16 15 14 15 15 13 13 13 12 12 11 10 9 9 8 7 6 7 8 7 7 7 7 6 6 6 6 6 6 6
9 9 10 11 9 11 12 11 12 13 14 15 14 16 15 15 15 16 16 14 14 14 13 12 11 10 9 9 8 7 7 7 7 7 7 7 7 6 6 6 6 6 6 6
8 9 9 9 9 12 12 10 12 14 15 15 15 15 16 17 18 17 15 16 14 14 14 12 12 11 9 9 8 7 7 7 7 7 7 7 7 6 6 6 6 6 6 6
8 9 9 10 10 11 13 11 11 12 13 13 13 14 15 14 13 15 13 14 16 15 14 13 13 11 10 9 9 8 7 8 7 6 7 6 6 6 6 6 6 6 6 6
8 8 9 8 10 12 13 10 10 11 13 10 10 11 11 11 12 15 12 11 12 13 13 12 12 11 10 9 10 8 7 6 5 7 7 7 7 7 7 7 7 7 7 6
9 8 9 9 10 11 10 9 9 12 12 8 9 9 9 10 12 10 8 9 7 8 9 10 10 11 10 10 9 7 6 6 8 9 8 8 7 7 8 8 8 7 6 6
9 9 10 9 10 11 8 9 11 11 9 8 8 9 8 8 7 7 7 7 5 4 4 6 7 7 8 9 8 6 7 9 9 8 8 7 7 7 7 7 7 6 5 5
8 9 9 10 11 10 8 9 9 7 8 8 8 8 6 6 8 7 6 5 3 2 2 2 4 2 3 5 6 5 6 7 7 7 7 7 6 6 6 5 5 4 3 2
7 6 8 8 8 8 8 8 8 7 7 8 6 7 6 6 6 6 5 4 3 -1 -0 0 1 1 0 2 4 7 7 7 6 6 5 5 5 4 4 4 4 3 2 1
8 6 8 7 6 6 7 7 8 7 7 6 6 7 7 6 6 5 3 1 -1 -2 -1 0 -0 -2 -2 1 3 3 4 5 5 5 5 5 5 4 4 3 3 3 3 3
5 7 8 9 7 8 10 8 6 7 7 7 6 7 2 2 4 1 -0 -2 -2 -2 -2 -2 -2 -2 -3 -0 1 2 4 5 6 4 4 4 4 3 3 3 3 3 3 2
Height
767 774 778 781 781 782 777 783 784 781 794 795 792 786 786 790 793 787 787 791 795 798 805 811 816 821 824 828 831 834 837 841 844 847 850 854 855 857 858 860 861 862 863 863
771 762 752 762 774 784 785 773 787 798 800 799 799 792 792 791 786 781 782 786 789 795 802 808 811 815 818 821 825 828 833 836 839 843 846 848 851 855 857 858 859 860 861 862
753 752 756 769 781 787 781 773 774 786 803 806 802 791 789 785 785 785 786 782 785 788 796 802 805 809 813 815 818 822 826 829 833 839 841 844 848 852 854 855 858 858 860 861
758 760 760 769 778 779 786 771 772 789 791 805 812 787 767 773 779 782 778 782 781 784 790 795 800 803 806 809 814 817 822 825 829 833 836 838 843 847 850 853 854 856 859 860
765 764 762 772 771 781 783 773 784 791 805 808 810 807 756 772 772 768 770 771 774 775 781 787 791 795 800 804 808 813 817 820 823 826 831 835 839 843 847 850 854 854 857 858
771 772 770 769 773 774 779 778 801 813 819 818 791 795 758 762 761 757 758 761 765 770 775 781 786 792 796 799 803 807 811 815 818 823 827 831 835 839 843 846 852 851 856 858
778 783 780 773 773 781 776 776 810 816 818 792 782 798 751 747 749 746 747 752 756 763 770 775 781 786 791 795 799 803 806 811 815 820 823 827 832 836 840 843 846 849 853 855
758 775 777 769 773 780 775 762 778 784 790 781 812 782 745 743 744 753 757 754 754 763 768 772 777 782 787 792 795 799 803 807 812 817 820 824 829 834 837 842 842 847 851 853
759 774 784 782 777 771 787 778 777 786 822 780 768 764 745 750 751 757 755 761 758 760 765 770 777 780 785 790 793 797 801 806 809 813 817 822 828 832 835 838 841 844 847 851
752 769 790 786 782 784 777 774 784 785 790 775 769 758 740 744 744 747 755 756 756 762 767 770 774 778 784 787 791 795 799 804 808 812 817 821 826 830 833 836 839 842 845 848
749 752 789 790 784 778 783 783 783 776 784 764 765 742 730 728 729 731 740 751 753 761 763 767 772 779 782 785 789 793 797 801 806 811 815 819 823 827 830 834 838 840 844 846
756 768 772 780 786 783 770 771 768 761 783 785 784 741 747 744 745 745 747 751 754 759 763 767 771 776 779 783 788 793 796 800 803 807 811 815 820 824 827 832 835 838 843 846
758 765 767 776 786 794 782 780 762 765 769 776 766 746 748 748 749 750 749 752 756 760 765 768 771 774 777 782 787 790 793 797 801 804 808 813 817 821 824 828 832 835 839 843
762 767 756 745 749 756 771 773 765 761 766 758 749 739 739 743 744 744 747 752 753 760 763 766 769 771 775 779 783 788 791 795 799 803 805 809 812 816 822 826 829 833 836 839
768 762 764 764 761 757 750 756 763 762 755 753 742 745 739 742 741 744 747 751 755 756 758 763 764 768 773 776 780 784 788 791 795 799 802 806 809 814 819 823 827 831 833 838
766 768 769 771 765 758 756 753 753 752 757 755 760 751 745 747 749 747 747 751 753 754 757 757 760 765 769 771 774 779 783 787 790 794 798 802 806 811 816 821 825 829 832 834
766 773 770 764 777 762 756 753 751 751 750 750 751 747 748 747 748 746 742 745 746 750 752 754 758 759 761 764 768 774 777 781 786 789 793 798 803 807 812 818 822 825 828 830
771 773 772 774 773 758 745 751 745 742 740 742 741 743 740 738 736 736 740 740 743 745 746 749 751 752 755 760 764 770 774 776 781 784 790 794 798 804 809 814 818 822 824 825
772 771 775 767 768 752 740 748 748 745 743 746 745 740 739 743 748 739 742 739 737 737 740 741 743 747 751 754 759 765 769 773 777 780 785 790 796 800 805 808 812 817 818 818
772 774 767 779 760 749 742 750 751 748 743 753 751 746 746 748 746 734 738 739 736 737 737 737 739 743 747 749 754 760 765 768 771 775 780 786 791 796 799 803 806 809 811 815
769 769 764 764 757 754 752 755 754 749 750 757 755 751 749 748 741 740 742 739 738 737 735 735 736 737 739 744 748 755 760 762 765 771 778 783 787 790 794 798 803 806 809 811
771 767 760 763 758 753 758 755 748 752 755 755 753 752 752 750 746 742 740 738 737 736 734 734 736 737 739 741 744 750 754 756 763 769 775 778 782 786 791 793 795 801 803 805
769 760 759 758 747 748 752 751 752 756 755 752 751 749 749 746 741 738 738 738 736 735 734 734 734 737 739 741 744 747 751 758 763 766 771 775 779 782 787 790 792 799 800 806
767 770 762 760 756 754 754 752 748 749 750 749 748 747 745 743 740 737 738 740 738 735 733 734 736 738 740 744 747 750 754 758 761 763 770 774 777 778 784 787 789 796 799 800
761 768 760 760 757 758 752 749 747 746 746 745 745 742 740 741 740 742 741 742 740 738 737 736 738 742 742 745 749 751 754 758 762 764 768 773 773 779 780 785 789 791 793 796
765 758 754 745 749 748 742 742 743 744 744 742 744 741 742 740 740 743 746 744 742 741 742 743 743 743 748 748 751 754 753 758 761 765 769 771 774 778 781 781 785 787 789 790
Wind_Speed
6 6 14 18 16 0 14 18 16 17 6 5 14 15 9 12 12 14 15 16 16 18 18 19 20 21 20 20 21 22 22 22 22 21 16 12 13 12 12 10 9 7 5 3
5 15 26 24 18 6 15 26 16 5 4 4 4 13 5 12 12 17 18 17 18 16 15 18 21 21 23 23 24 24 24 23 24 21 18 17 20 12 11 11 9 8 7 6
12 6 15 16 13 11 15 21 19 17 8 3 2 12 11 8 10 10 13 15 16 18 17 16 21 24 23 25 26 26 26 25 26 21 21 19 17 13 14 12 10 9 9 9
5 7 19 15 13 12 9 9 17 16 17 11 3 11 21 20 15 15 17 16 18 18 16 16 21 23 26 27 24 24 24 25 25 25 24 26 17 14 13 15 13 12 10 9
2 8 17 18 14 8 4 7 8 6 5 6 6 7 18 13 21 19 18 19 18 18 17 18 22 25 24 21 21 21 22 23 24 27 23 23 20 18 15 15 14 14 13 12
4 2 2 2 7 4 8 15 10 7 4 4 15 16 18 13 16 21 19 20 19 18 17 16 19 18 18 17 19 20 21 23 23 24 22 22 26 22 19 17 16 15 13 13
2 3 4 3 10 5 3 19 4 3 4 7 10 10 17 6 14 15 22 22 21 16 15 14 14 16 15 16 17 18 21 21 21 22 21 24 26 21 18 20 17 17 16 15
4 2 3 2 5 9 16 12 7 8 7 6 2 12 10 18 11 8 5 8 11 12 11 12 13 15 15 16 17 17 19 19 21 21 22 25 23 19 19 17 17 18 16 17
5 2 2 3 3 14 6 9 4 5 2 3 7 6 9 7 9 10 10 6 9 10 9 9 10 13 15 16 16 17 18 18 19 18 22 23 21 20 17 18 18 18 18 18
5 6 1 0 4 1 9 10 3 2 7 7 4 9 8 6 12 10 10 14 9 6 7 7 9 13 15 16 15 15 15 16 16 18 19 20 20 20 19 19 20 21 21 20
4 3 3 1 4 8 6 6 2 3 0 3 3 4 8 14 6 12 13 9 10 9 9 8 9 13 14 14 14 15 16 17 17 18 19 19 20 20 20 19 21 22 22 22
2 4 4 2 2 3 7 10 9 7 7 2 2 3 1 1 2 2 3 7 8 9 9 9 12 16 16 16 15 16 15 18 19 19 19 20 20 20 21 21 22 23 22 21
4 3 5 4 2 1 4 3 12 1 3 8 4 1 3 2 4 4 4 5 8 9 9 9 9 12 14 16 16 16 18 18 19 19 19 19 20 21 22 23 24 24 23 23
5 2 2 4 0 6 8 9 15 9 5 5 10 6 2 3 4 0 2 4 7 8 9 8 8 11 14 17 18 18 17 17 20 20 20 21 22 23 23 24 24 24 24 24
2 2 1 3 2 0 6 17 18 20 18 12 8 13 3 2 1 2 2 4 5 8 10 10 11 10 16 18 18 17 17 20 21 21 22 23 23 23 23 24 25 25 24 23
1 1 2 3 4 1 3 9 19 24 20 20 3 8 3 1 1 3 4 5 7 9 10 11 11 13 16 18 20 19 19 23 24 24 23 22 23 24 24 25 25 25 24 24
3 4 3 3 3 3 5 10 15 12 13 17 18 11 3 3 7 9 8 9 10 10 12 13 13 15 20 21 21 22 23 24 25 25 24 25 26 26 26 26 26 27 26 23
4 4 1 2 2 5 1 1 5 16 13 17 14 10 11 14 16 9 4 8 8 9 10 9 12 16 17 21 21 19 24 26 28 27 26 28 28 28 28 27 28 27 25 25
3 2 2 3 3 5 2 2 5 6 3 3 14 13 14 8 6 14 8 11 11 8 10 14 16 16 17 23 24 26 26 26 29 30 30 31 30 30 29 30 31 28 27 27
2 1 1 2 3 4 1 2 1 1 3 3 3 3 5 4 6 10 4 4 11 15 12 14 18 15 19 23 25 28 28 30 30 32 32 31 31 31 33 33 31 29 29 29
2 2 3 4 3 5 2 4 0 3 1 3 2 2 2 3 5 4 7 6 4 5 11 12 17 20 22 25 28 30 31 33 32 30 30 30 31 32 31 30 29 29 29 28
4 4 2 2 3 6 2 2 2 2 1 3 2 2 3 6 8 5 5 4 4 5 4 4 12 14 15 22 29 29 32 30 26 26 28 29 30 30 29 28 28 29 27 26
3 3 2 5 3 4 4 5 3 2 3 3 3 2 3 5 4 5 4 4 2 4 5 2 8 9 9 19 25 24 22 20 21 22 24 24 25 25 25 26 25 22 21 24
3 4 3 1 3 3 4 4 5 7 5 4 4 3 2 4 6 4 3 4 3 2 2 3 10 12 10 10 13 14 16 17 18 18 17 16 16 16 17 17 18 20 21 19
1 4 4 4 5 3 8 8 4 5 4 3 4 3 2 1 1 3 1 3 3 3 4 9 12 12 14 14 15 14 16 16 16 14 12 10 8 10 11 12 13 15 16 18
6 6 5 4 4 2 5 3 4 7 6 4 4 3 3 2 3 1 1 2 3 5 9 13 18 21 17 19 18 15 17 14 15 14 11 10 10 9 9 8 8 10 11 13
Wind_Direction
137 135 194 188 190 127 212 193 199 212 105 190 213 220 208 189 202 203 204 197 198 206 198 197 198 200 198 201 198 196 194 191 187 190 184 187 196 195 198 193 198 217 220 187
139 203 207 190 178 206 194 188 197 55 79 182 216 232 229 198 215 207 205 206 206 203 196 198 196 198 202 202 204 201 200 195 195 196 199 201 198 191 192 198 199 202 193 178
173 177 155 163 168 176 204 189 173 199 173 58 306 241 227 226 220 214 227 224 217 210 204 200 196 201 205 207 207 203 202 200 200 194 198 191 190 184 189 195 196 190 183 179
110 145 147 154 172 177 190 226 168 142 162 202 218 243 218 214 213 211 220 215 218 212 215 208 203 203 207 210 210 207 205 202 200 196 199 199 189 183 201 192 192 182 183 179
84 161 161 163 181 179 188 138 131 110 113 79 212 242 229 206 221 212 219 220 220 216 208 209 207 210 211 208 206 207 203 202 199 202 199 193 195 195 190 181 184 180 182 179
72 10 33 35 121 166 155 118 71 45 45 223 196 215 228 206 214 216 219 221 220 214 209 210 210 209 209 208 208 205 202 203 201 199 197 196 199 188 183 179 183 176 181 176
39 9 317 218 106 46 213 133 122 134 188 233 207 207 231 190 217 217 216 214 215 208 206 204 202 201 202 200 200 200 199 199 197 195 193 198 199 193 194 186 182 178 182 177
135 148 174 202 138 170 187 165 161 178 199 183 119 230 227 230 217 209 239 244 219 200 202 207 208 200 195 196 191 193 190 190 188 188 191 195 196 196 193 189 186 185 183 182
134 90 3 339 97 161 180 208 62 93 34 190 196 244 263 218 216 215 217 219 215 199 190 196 197 196 190 188 184 183 179 180 180 182 187 189 193 193 190 191 187 187 185 181
150 112 322 64 99 279 196 150 143 181 160 213 189 242 223 191 222 212 211 220 211 192 182 181 185 181 182 178 171 170 173 174 175 181 188 191 193 196 195 192 189 187 185 182
110 73 134 153 217 167 162 180 212 106 344 238 180 231 201 209 214 207 207 208 200 198 185 176 176 180 173 165 167 169 171 172 176 182 186 189 192 193 193 191 189 188 187 183
103 107 133 112 352 306 208 183 179 196 183 234 312 240 104 293 9 59 166 193 198 195 186 172 171 170 170 170 172 174 174 180 185 188 190 191 192 192 191 189 190 189 186 184
156 135 120 129 152 354 219 205 209 51 81 206 186 163 28 349 257 201 199 194 177 178 172 165 164 171 175 178 180 180 182 187 189 187 186 187 190 189 188 190 191 188 186 189
64 145 226 192 54 136 185 190 210 188 206 165 232 256 220 224 293 296 158 179 169 177 177 176 175 181 184 183 183 187 186 187 189 188 185 188 190 191 193 194 192 191 191 195
94 128 31 53 12 222 194 179 196 210 219 222 213 222 211 168 334 307 131 155 184 194 189 195 195 191 189 187 187 188 189 189 189 188 190 194 193 193 194 195 193 194 196 199
182 80 95 12 10 327 210 201 199 210 216 229 280 242 321 329 266 241 225 189 214 218 217 213 206 196 192 192 192 191 189 194 192 193 194 192 192 194 195 195 195 196 199 203
130 141 158 162 322 307 264 210 208 210 222 221 229 232 275 275 253 247 224 201 211 212 213 211 206 197 199 198 193 195 196 195 194 195 196 194 194 195 196 197 197 201 204 207
149 140 90 121 182 231 34 106 219 215 224 225 241 224 221 228 246 264 225 219 227 232 229 214 211 208 199 201 198 198 196 194 197 197 198 199 199 200 199 199 203 207 209 215
167 159 131 189 220 314 248 213 155 164 223 280 244 246 242 254 314 270 231 220 223 222 227 221 213 202 193 197 195 198 198 196 200 200 202 203 202 202 202 204 208 210 215 220
234 51 166 161 201 227 34 6 329 358 246 5 356 357 277 181 241 261 11 268 238 232 225 221 214 206 205 200 198 198 199 198 199 203 206 206 205 206 207 210 212 216 223 231
170 167 210 179 211 284 317 310 52 164 85 330 314 333 0 214 245 317 310 293 308 283 246 233 204 199 203 195 191 192 197 204 207 206 209 209 210 211 214 217 219 225 230 236
205 187 184 190 200 241 185 142 193 348 273 246 251 249 275 266 282 283 284 284 334 338 336 210 206 205 195 191 189 191 201 207 206 207 209 210 213 214 217 220 223 231 234 240
259 202 210 216 229 175 182 156 197 212 270 284 266 276 292 296 294 305 306 307 332 340 327 289 175 162 179 191 194 192 199 199 197 195 202 207 212 216 222 224 228 235 241 245
238 195 219 328 350 262 251 263 217 181 213 219 221 260 293 306 318 314 330 325 327 1 58 125 143 136 123 156 180 188 182 181 182 178 191 199 207 209 220 227 233 239 241 242
245 158 206 253 255 276 252 238 232 234 224 271 269 225 241 273 314 304 345 17 16 53 88 125 120 112 112 128 129 136 149 156 156 155 158 166 175 198 206 218 227 235 245 249
188 188 200 237 230 235 265 254 220 210 249 227 248 287 265 166 190 128 84 60 64 93 120 117 121 118 112 116 117 124 135 145 142 143 145 152 163 178 191 201 225 237 247 252